Hourly Data Report for October 26, 2014

All times are specified in Local Standard Time (LST). Add 1 hour to adjust for Daylight Saving Time where and when it is observed.

QIKIQTARJUAQ A
NUNAVUT

67°32'48.000" N
64°01'54.000" W
5.50 m
2400577
YVM

Download Data

Hourly Data (October 2014)
Hourly Data Report for October 26, 2014
Temp Definition
°C
Dew Point Temp Definition
°C
Rel Hum Definition
%
Wind Dir Definition
10's deg

Wind Spd Definition
km/h
Visibility Definition
km
Stn Press Definition
kPa
Hmdx Definition


Wind Chill Definition


Weather Definition


TIME
00:00 Legend Double Dagger -10.1 -13.6 76 15 9 16.1 101.91   -15 LegendNANA
01:00 Legend Double Dagger -10.4 -14.0 75 17 8 16.1 101.93   -15 LegendNANA
02:00 Legend Double Dagger -10.2 -14.4 72 20 9 16.1 101.93   -15 LegendNANA
03:00 Legend Double Dagger -10.1 -14.4 71 12 9 16.1 101.93   -15 LegendNANA
04:00 Legend Double Dagger -7.8 -13.0 67 19 17 16.1 101.94   -14 LegendNANA
05:00 Legend Double Dagger -8.0 -12.3 72 18 11 16.1 101.95   -13 LegendNANA
06:00 Legend Double Dagger -7.2 -12.7 65 18 22 16.1 101.95   -15 LegendNANA
07:00 Legend Double Dagger -6.8 -12.0 67 19 18 16.1 101.98   -13 LegendNANA
08:00 Legend Double Dagger -6.5 -11.7 67 19 15 16.1 101.97   -12 LegendNANA
09:00 Legend Double Dagger -6.3 -11.0 70 19 13 16.1 101.97   -12 LegendNANA
10:00 Legend Double Dagger -5.9 -11.2 66 20 8 16.1 101.98   -10 LegendNANA
11:00 Legend Double Dagger -5.7 -11.2 66 17 4 16.1 101.97   -8 LegendNANA
12:00 Legend Double Dagger -5.8 -11.2 66 15 5 16.1 101.98   -8 LegendNANA
13:00 Legend Double Dagger -5.9 -10.5 70 12 4 16.1 101.99   -8 LegendNANA
14:00 Legend Double Dagger -5.9 -10.9 68 15 9 16.1 102.01   -10 LegendNANA
15:00 Legend Double Dagger -5.6 -11.1 65 17 9 14.5 102.03   -10 LegendNANA
16:00 Legend Double Dagger -5.6 -11.6 63 18 8 14.5 102.06   -9 LegendNANA
17:00 Legend Double Dagger -5.8 -10.9 67 17 11 16.1 102.08   -11 LegendNANA
18:00 Legend Double Dagger -5.7 -11.5 64 18 15 16.1 102.09   -11 Snow
19:00 Legend Double Dagger -6.0 -11.2 67 18 18 16.1 102.10   -12 LegendNANA
20:00 Legend Double Dagger -6.1 -11.7 65 18 18 16.1 102.11   -13 LegendNANA
21:00 Legend Double Dagger -6.3 -11.7 66 18 21 16.1 102.10   -13 LegendNANA
22:00 Legend Double Dagger -6.8 -12.4 65 18 22 16.1 102.09   -14 LegendNANA
23:00 Legend Double Dagger -7.6 -13.2 65 19 18 16.1 102.09   -14 LegendNANA

Notes on Data Quality.

Legend

  • E = Estimated
  • M = Missing
  • NA = Not Available
  • ‡ = Partner data that is not subject to review by the National Climate Archives
Date modified: